JST33 YBCS-YMML

Flight info

Callsign JST33
Flight time N/A
Altitude 37000
Route AKROM R346 TL Q30 MATAR Y33 DUBED Q35 DORSU H119 ARBEY
Aircraft A320/M-SDE3FGHIRWY/LB1

Departure

Time 2026-04-27 09:05
Airport Cairns International Airport (YBCS)

Arrival

Time N/A
Airport Melbourne Airport (YMML)
Time Latitude Longitude Altitude Speed Heading
2026-04-27 08:21 -16.87213 145.75532 11 ft 0 kts 156°
2026-04-27 08:47 -16.87209 145.75531 -13 ft 3 kts 157°
2026-04-27 08:48 -16.87184 145.75520 19 ft 4 kts 161°
2026-04-27 08:48 -16.87158 145.75512 17 ft 4 kts 171°
2026-04-27 08:48 -16.87132 145.75512 0 ft 4 kts 203°
2026-04-27 08:48 -16.87121 145.75520 3 ft 0 kts 246°
2026-04-27 08:52 -16.87125 145.75511 1 ft 3 kts 246°
2026-04-27 08:52 -16.87140 145.75474 4 ft 7 kts 246°
2026-04-27 08:52 -16.87163 145.75419 1 ft 8 kts 248°
2026-04-27 08:52 -16.87166 145.75412 1 ft 3 kts 248°
2026-04-27 08:53 -16.87168 145.75381 -1 ft 5 kts 275°
2026-04-27 08:53 -16.87166 145.75366 -1 ft 2 kts 278°
2026-04-27 08:53 -16.87163 145.75356 -1 ft 0 kts 284°
2026-04-27 08:53 -16.87162 145.75353 -1 ft 0 kts 286°
2026-04-27 08:54 -16.87162 145.75352 -1 ft 1 kts 285°
2026-04-27 08:54 -16.87161 145.75348 2 ft 0 kts 282°
2026-04-27 08:55 -16.87175 145.75335 -1 ft 5 kts 226°
2026-04-27 08:55 -16.87204 145.75296 -1 ft 9 kts 239°
2026-04-27 08:55 -16.87232 145.75234 -1 ft 10 kts 249°
2026-04-27 08:56 -16.87264 145.75159 0 ft 12 kts 247°
2026-04-27 08:56 -16.87301 145.75069 -1 ft 14 kts 247°
2026-04-27 08:56 -16.87310 145.75047 -1 ft 1 kts 247°
2026-04-27 08:56 -16.87320 145.75018 -1 ft 8 kts 255°
2026-04-27 08:57 -16.87287 145.74886 -1 ft 11 kts 304°
2026-04-27 08:57 -16.87228 145.74844 -1 ft 9 kts 335°
2026-04-27 08:57 -16.87216 145.74839 -1 ft 0 kts 336°
2026-04-27 08:58 -16.87192 145.74828 1 ft 5 kts 336°
2026-04-27 08:58 -16.87151 145.74810 1 ft 7 kts 337°
2026-04-27 08:59 -16.87136 145.74803 1 ft 2 kts 337°
2026-04-27 08:59 -16.87123 145.74797 1 ft 0 kts 337°
2026-04-27 08:59 -16.87120 145.74796 1 ft 2 kts 337°
2026-04-27 08:59 -16.87100 145.74787 1 ft 4 kts 337°
2026-04-27 09:00 -16.87067 145.74768 -4 ft 6 kts 325°
2026-04-27 09:00 -16.87057 145.74753 11 ft 0 kts 298°
2026-04-27 09:01 -16.87056 145.74753 11 ft 0 kts 298°
2026-04-27 09:01 -16.87053 145.74743 -1 ft 3 kts 292°
2026-04-27 09:01 -16.87051 145.74739 -1 ft 4 kts 288°
2026-04-27 09:01 -16.87053 145.74701 -2 ft 0 kts 253°
2026-04-27 09:03 -16.87054 145.74699 -2 ft 1 kts 253°
2026-04-27 09:03 -16.87061 145.74676 -1 ft 6 kts 248°
2026-04-27 09:03 -16.87089 145.74627 -3 ft 0 kts 237°
2026-04-27 09:03 -16.87097 145.74615 -4 ft 3 kts 238°
2026-04-27 09:04 -16.87102 145.74606 -4 ft 0 kts 237°
2026-04-27 09:04 -16.87106 145.74606 -4 ft 2 kts 204°
2026-04-27 09:04 -16.87302 145.74678 -1 ft 71 kts 156°
2026-04-27 09:04 -16.88000 145.74995 18 ft 143 kts 157°
2026-04-27 09:05 -16.89010 145.75438 544 ft 160 kts 158°
2026-04-27 09:05 -16.89883 145.76141 1454 ft 165 kts 120°
2026-04-27 09:05 -16.90129 145.77344 2223 ft 179 kts 89°
2026-04-27 09:05 -16.89674 145.78627 2585 ft 202 kts 56°
2026-04-27 09:06 -16.88547 145.79578 3045 ft 216 kts 36°
2026-04-27 09:06 -16.87235 145.80394 3624 ft 221 kts 38°
2026-04-27 09:06 -16.86041 145.81388 4367 ft 217 kts 50°
2026-04-27 09:06 -16.85053 145.82545 5114 ft 211 kts 60°
2026-04-27 09:07 -16.84289 145.83826 5863 ft 206 kts 69°
2026-04-27 09:07 -16.83992 145.85283 6234 ft 216 kts 103°
2026-04-27 09:07 -16.84746 145.86657 6560 ft 234 kts 142°
2026-04-27 09:07 -16.86265 145.87429 6985 ft 255 kts 159°
2026-04-27 09:08 -16.87975 145.88045 7631 ft 263 kts 159°
2026-04-27 09:08 -16.89730 145.88676 8376 ft 270 kts 160°
2026-04-27 09:08 -16.91527 145.89320 9111 ft 276 kts 160°
2026-04-27 09:08 -16.93358 145.89951 9897 ft 281 kts 163°
2026-04-27 09:09 -16.95255 145.90493 10390 ft 294 kts 165°
2026-04-27 09:09 -16.97309 145.91030 10583 ft 316 kts 167°
2026-04-27 09:09 -16.99553 145.91594 10739 ft 339 kts 167°
2026-04-27 09:09 -17.01862 145.92172 11189 ft 348 kts 167°
2026-04-27 09:10 -17.04225 145.92769 11785 ft 352 kts 169°
2026-04-27 09:10 -17.06615 145.93379 12330 ft 357 kts 169°
2026-04-27 09:10 -17.09058 145.94007 12873 ft 362 kts 169°
2026-04-27 09:10 -17.11517 145.94643 13409 ft 367 kts 169°
2026-04-27 09:11 -17.14004 145.95289 13935 ft 371 kts 170°
2026-04-27 09:11 -17.16520 145.95945 14420 ft 375 kts 169°
2026-04-27 09:11 -17.19075 145.96612 14929 ft 378 kts 169°
2026-04-27 09:11 -17.21633 145.97279 15441 ft 381 kts 169°
2026-04-27 09:12 -17.24210 145.97950 15937 ft 384 kts 169°
2026-04-27 09:12 -17.26788 145.98620 16427 ft 387 kts 169°
2026-04-27 09:12 -17.29404 145.99300 16879 ft 390 kts 169°
2026-04-27 09:12 -17.32040 145.99989 17378 ft 393 kts 169°
2026-04-27 09:13 -17.34714 146.00687 17878 ft 396 kts 169°
2026-04-27 09:13 -17.37391 146.01383 18359 ft 399 kts 169°
2026-04-27 09:13 -17.40089 146.02083 18780 ft 402 kts 169°
2026-04-27 09:13 -17.42824 146.02792 19217 ft 405 kts 169°
2026-04-27 09:14 -17.45562 146.03500 19638 ft 408 kts 169°
2026-04-27 09:14 -17.47980 146.04128 20041 ft 410 kts 169°
2026-04-27 09:14 -17.50042 146.04665 20382 ft 412 kts 169°
2026-04-27 09:14 -17.52679 146.05355 20806 ft 414 kts 169°
2026-04-27 09:15 -17.55478 146.06086 21236 ft 417 kts 169°
2026-04-27 09:15 -17.58296 146.06820 21650 ft 420 kts 169°
2026-04-27 09:15 -17.61153 146.07563 22053 ft 423 kts 169°
2026-04-27 09:15 -17.64011 146.08305 22459 ft 425 kts 169°
2026-04-27 09:16 -17.66887 146.09055 22847 ft 428 kts 169°
2026-04-27 09:16 -17.69801 146.09818 23254 ft 431 kts 169°
2026-04-27 09:16 -17.72715 146.10580 23628 ft 434 kts 169°
2026-04-27 09:16 -17.75648 146.11346 23961 ft 436 kts 169°
2026-04-27 09:17 -17.78616 146.12123 24304 ft 439 kts 169°
2026-04-27 09:17 -17.81577 146.12900 24665 ft 440 kts 169°
2026-04-27 09:17 -17.84547 146.13680 25031 ft 442 kts 169°
2026-04-27 09:17 -17.87549 146.14466 25374 ft 444 kts 169°
2026-04-27 09:18 -17.90504 146.15236 25704 ft 446 kts 169°
2026-04-27 09:18 -17.93513 146.16021 26040 ft 448 kts 169°
2026-04-27 09:18 -17.96294 146.16749 26355 ft 450 kts 169°
2026-04-27 09:18 -17.99310 146.17543 26700 ft 452 kts 169°
2026-04-27 09:19 -18.02360 146.18344 27049 ft 454 kts 169°
2026-04-27 09:19 -18.05427 146.19147 27401 ft 456 kts 169°
2026-04-27 09:19 -18.08528 146.19957 27750 ft 458 kts 169°
2026-04-27 09:19 -18.11624 146.20766 28082 ft 461 kts 169°
2026-04-27 09:20 -18.14735 146.21582 28404 ft 463 kts 169°
2026-04-27 09:20 -18.17879 146.22410 28772 ft 464 kts 169°
2026-04-27 09:20 -18.20998 146.23231 29251 ft 462 kts 169°
2026-04-27 09:20 -18.24108 146.24050 29745 ft 461 kts 169°
2026-04-27 09:21 -18.27191 146.24859 30198 ft 460 kts 169°
2026-04-27 09:21 -18.30290 146.25671 30588 ft 460 kts 169°
2026-04-27 09:21 -18.33387 146.26483 30961 ft 460 kts 169°
2026-04-27 09:21 -18.36506 146.27303 31317 ft 460 kts 169°
2026-04-27 09:22 -18.39606 146.28118 31683 ft 460 kts 169°
2026-04-27 09:22 -18.42707 146.28935 32133 ft 460 kts 169°
2026-04-27 09:22 -18.45802 146.29751 32522 ft 460 kts 169°
2026-04-27 09:22 -18.48918 146.30573 32926 ft 460 kts 169°
2026-04-27 09:23 -18.52014 146.31391 33309 ft 460 kts 169°
2026-04-27 09:23 -18.55110 146.32214 33673 ft 460 kts 169°
2026-04-27 09:23 -18.58231 146.33042 34033 ft 461 kts 169°
2026-04-27 09:23 -18.61333 146.33863 34338 ft 461 kts 169°
2026-04-27 09:24 -18.64409 146.34675 34621 ft 461 kts 170°
2026-04-27 09:24 -18.67562 146.35503 34911 ft 462 kts 170°
2026-04-27 09:24 -18.70677 146.36322 35203 ft 463 kts 170°
2026-04-27 09:24 -18.73768 146.37136 35539 ft 461 kts 170°
2026-04-27 09:25 -18.76871 146.37955 35869 ft 460 kts 171°
2026-04-27 09:25 -18.79969 146.38775 36159 ft 460 kts 171°
2026-04-27 09:25 -18.83088 146.39602 36455 ft 460 kts 171°
2026-04-27 09:25 -18.86186 146.40424 36706 ft 460 kts 171°
2026-04-27 09:26 -18.89285 146.41245 36945 ft 461 kts 171°
2026-04-27 09:26 -18.95555 146.42901 37028 ft 468 kts 171°
2026-04-27 09:27 -19.01851 146.44575 37048 ft 469 kts 170°
2026-04-27 09:27 -19.08124 146.46244 37035 ft 464 kts 170°
2026-04-27 09:28 -19.14390 146.47902 37032 ft 463 kts 170°
2026-04-27 09:28 -19.20632 146.49553 37033 ft 463 kts 170°
2026-04-27 09:29 -19.26906 146.51226 37044 ft 464 kts 170°
2026-04-27 09:29 -19.33148 146.52896 37050 ft 463 kts 169°
2026-04-27 09:30 -19.39358 146.54552 37055 ft 462 kts 169°
2026-04-27 09:30 -19.45580 146.56207 37052 ft 462 kts 169°
2026-04-27 09:31 -19.51818 146.57867 37054 ft 461 kts 169°
2026-04-27 09:31 -19.58010 146.59519 37054 ft 461 kts 169°
2026-04-27 09:32 -19.64221 146.61185 37067 ft 461 kts 169°
2026-04-27 09:32 -19.70441 146.62852 37063 ft 460 kts 169°
2026-04-27 09:33 -19.76628 146.64509 37062 ft 459 kts 169°
2026-04-27 09:33 -19.82827 146.66167 37059 ft 459 kts 169°
2026-04-27 09:34 -19.88980 146.67816 37056 ft 458 kts 169°
2026-04-27 09:34 -19.95188 146.69475 37064 ft 457 kts 171°
2026-04-27 09:35 -20.01401 146.69963 37063 ft 447 kts 189°
2026-04-27 09:35 -20.07512 146.68918 37059 ft 444 kts 193°
2026-04-27 09:36 -20.13592 146.67806 37056 ft 444 kts 193°
2026-04-27 09:36 -20.19694 146.66696 37067 ft 444 kts 193°
2026-04-27 09:37 -20.25777 146.65587 37063 ft 444 kts 193°
2026-04-27 09:37 -20.31836 146.64474 37064 ft 444 kts 193°